Regional Weather Roundup
Issued by NWS

Home | Current Version | Previous Version | Graphics & Text | Print | Product List | Glossary On
Versions: 1 2 3 4 5 6 7 8 9 10 11 12 13 14 15 16 17 18 19 20 21 22 23 24 25 26 27 28 29 30 31 32 33 34 35 36 37 38 39 40 41 42 43 44 45 46 47 48 49 50
000
ASUS43 KLOT 271600
RWRIL

ILLINOIS REGIONAL WEATHER ROUNDUP
NATIONAL WEATHER SERVICE CHICAGO/ROMEOVILLE IL
1000 AM CST TUE JAN 27 2015

NOTE: "FAIR" INDICATES FEW OR NO CLOUDS BELOW 12,000 FEET WITH NO
SIGNIFICANT WEATHER AND/OR OBSTRUCTIONS TO VISIBILITY.

* THESE STATIONS ARE NOT UNDER NWS QUALITY CONTROL. THEY ALSO MAY NOT
  REPORT WEATHER SUCH AS PRECIPITATION OR FOG.

ILZ001-002-007-009-015-016-024-271700-
NORTHWEST ILLINOIS

CITY           SKY/WX    TMP DP  RH WIND       PRES   REMARKS
MOLINE         CLOUDY    30  23  75 NE10      30.17R WCI  21
STERLING*      CLOUDY    28  21  74 NE8       30.17R WCI  20
$$

ILZ003-004-008-010-011-017-018-271700-
NORTH CENTRAL ILLINOIS

CITY           SKY/WX    TMP DP  RH WIND       PRES   REMARKS
ROCKFORD       CLOUDY    28  24  85 NE9       30.17R FOG     WCI  19
$$

ILZ005-006-012>014-019>023-271700-
NORTHEAST ILLINOIS

CITY           SKY/WX    TMP DP  RH WIND       PRES   REMARKS
CHICAGO-OHARE  CLOUDY    28  20  71 NE8       30.14R WCI  20
CHICAGO-MIDWAY CLOUDY    30  20  66 E10       30.14R WCI  21
AURORA         CLOUDY    29  25  85 NE7       30.14R FOG     WCI  22
WAUKEGAN       CLOUDY    28  19  69 NE6       30.15R WCI  22
DUPAGE AIRPORT LGT SNOW  28  23  81 NE9       30.13R WCI  19
WHEELING       CLOUDY    29  19  66 NE6       30.16R WCI  23
NORTHERLY ISL    N/A     28  18  66 NE10        N/A  WCI  19
$$

LMZ740>746-271700-
SOUTHERN LAKE MICHIGAN

STATION/POSITION SKY/WX   TEMP    WIND        PRES    VSBY  WAVE
                          AIR SEA DIR/SP/G                  HT/PER
                          (F)     (DEG/KT/KT) (MB)    (MI)  (FT/S)
WAUKEGAN HARBOR            28      40/ 12/ 15   N/A
HARRISON CRIB              28      40/ 10/ 14   N/A
BURNHAM HARBOR             29      40/ 10/ 12   N/A
CALUMET HARBOR             28      30/ 10/ 12   N/A
MICHIGAN CITY              24      50/  5/  6   N/A
$$

ILZ025>027-034>036-040-047-049-050-058-095>099-271700-
WEST-CENTRAL ILLINOIS

CITY           SKY/WX    TMP DP  RH WIND       PRES   REMARKS
QUINCY         SUNNY     39  31  72 N10       30.15R WCI  32
$$

ILZ028>032-037-038-041>044-048-051>054-059>061-271700-
CENTRAL ILLINOIS

CITY           SKY/WX    TMP DP  RH WIND       PRES   REMARKS
DECATUR        CLOUDY    32  30  92 NE9       30.13R WCI  24
PEORIA         CLOUDY    31  25  78 N7        30.16R WCI  24
SPRINGFIELD    CLOUDY    34  28  79 NE13      30.15R WCI  25
TAYLORVILLE    NOT AVBL
$$

ILZ033-039-045-046-055>057-062-063-271700-
EAST-CENTRAL ILLINOIS

CITY           SKY/WX    TMP DP  RH WIND       PRES   REMARKS
CHAMPAIGN      CLOUDY    30  27  88 NE13      30.12R WCI  20
MATTOON        CLOUDY    31  28  89 N9        30.10R WCI  23
$$

ILZ079-100>102-271700-
SOUTHWEST ILLINOIS

CITY           SKY/WX    TMP DP  RH WIND       PRES   REMARKS
ALTON          PTSUNNY   39  34  81 NW10      30.14R WCI  32
BELLEVILLE     MOSUNNY   40  35  81 N9        30.14R
CAHOKIA*       MOSUNNY   42  34  73 N9        30.15R
SPARTA*        CLOUDY    37  34  87 N8        30.14R WCI  31
$$

ILZ064>066-069>071-074>076-080>082-084>086-088>090-092>094-271700-
SOUTH-CENTRAL ILLINOIS

CITY           SKY/WX    TMP DP  RH WIND       PRES   REMARKS
CARBONDALE     PTSUNNY   39  32  76 N10       30.14R WCI  32
MARION         PTSUNNY   39  32  75 N12       30.13R WCI  32
MT. VERNON     SUNNY     37  30  75 N7        30.12R WCI  32
$$

ILZ067-068-072-073-078-083-087-091-271700-
SOUTHEAST ILLINOIS

CITY           SKY/WX    TMP DP  RH WIND       PRES   REMARKS
LAWRENCEVILLE  CLOUDY    32  30  92 NE7       30.11R FOG     WCI  26
$$

ABBREVIATIONS USED IN REMARKS
   TC - TEMPERATURE IN CELSIUS
  WCI - WIND CHILL INDEX
   HX - HEAT INDEX
  VSB - VISIBILITY
$$



USA.gov is the U.S. government's official web portal to all federal, state and local government web resources and services.